Flag Weather past 2 weeks in Küsnacht, Zurich, Switzerland

Now
44 °F

Fog.


Feels Like: 44 °F
Forecast: 39 / 52 °F
Wind: 1 mph from North

Location: Zurich Town / Ville.

Current Time: Nov 27, 2014 at 2:28:14 PM

Latest Report: Nov 27, 2014 at 1:00 PM


Visibility: N/A

Pressure: 29.81 "Hg

Humidity: 94%

Dew point: 42 °F

Location of KüsnachtLocation

Historic Weather in Küsnacht — Graph

°F

Küsnacht temperature yesterday

Maximum temperature yesterday: 47 °F (at 2:00 PM)
Minimum temperature yesterday: 44 °F (at 1:00 AM)
Average temperature yesterday: 45 °F

Past Weeks' High & Low Weather Summary

 TemperatureHumidityPressure
High56 °F (Nov 24, 3:00 PM)100% (Nov 20, 5:00 AM)30.32 "Hg (Nov 20, 5:00 AM)
Low35 °F (Nov 20, 5:00 AM)66% (Nov 21, 3:00 PM)29.56 "Hg (Nov 15, 9:00 PM)
Average44 °F91%29.98 "Hg
* Reported Nov 12 1:00 PM — Nov 27 1:00 PM, Küsnacht, Weather by CustomWeather, © 2014

Note: Actual official high and low records may vary slightly from our data, if they occured in-between our weather recording intervals... More about our weather records

Advertising

Küsnacht weather history for previous 24 hours

 ConditionsComfort  
Time TempWeatherWind HumidityBarometerVisibility
1:00 PM
Nov 27
44 °FFog.1 mph94%29.81 "HgN/A
12:00 PM44 °FQuite cool.1 mph95%29.81 "HgN/A
11:00 AM44 °FQuite cool.1 mph96%29.83 "HgN/A
10:00 AM43 °FQuite cool.2 mph97%29.83 "HgN/A
9:00 AM43 °FQuite cool.3 mph97%29.82 "HgN/A
8:00 AM43 °FQuite cool.3 mph97%29.82 "HgN/A
7:00 AM43 °FQuite cool.2 mph97%29.82 "HgN/A
6:00 AM43 °FQuite cool.2 mph99%29.84 "HgN/A
5:00 AM43 °FQuite cool.3 mph97%29.84 "HgN/A
4:00 AM43 °FQuite cool.3 mph98%29.87 "HgN/A
3:00 AM43 °FQuite cool.2 mph99%29.88 "HgN/A
2:00 AM44 °FQuite cool.5 mph99%29.88 "HgN/A
1:00 AM44 °FQuite cool.5 mph99%29.90 "HgN/A
12:00 AM44 °FQuite cool.5 mph99%29.92 "HgN/A
11:00 PM
Nov 26
44 °FQuite cool.3 mph98%29.93 "HgN/A
10:00 PM44 °FQuite cool.5 mph96%29.93 "HgN/A
9:00 PM44 °FQuite cool.3 mph96%29.94 "HgN/A
8:00 PM44 °FQuite cool.3 mph97%29.94 "HgN/A
7:00 PM45 °FPassing clouds.3 mph96%29.94 "HgN/A
6:00 PM45 °FCool.5 mph95%29.94 "HgN/A
5:00 PM46 °FCool.5 mph93%29.95 "HgN/A
4:00 PM46 °FCool.5 mph91%29.95 "HgN/A
3:00 PM47 °FCool.3 mph90%29.95 "HgN/A
2:00 PM47 °FCool.2 mph90%29.96 "HgN/A
Weather by CustomWeather, © 2014

See weather overviewHow to use our weather pages